United States

Ashburn, VA Weather Archive

Below you will find the last 24 hours of weather readings for Ashburn VA

Ashburn VA Today's Weather Data

Observed at: Ashburn, VA

Hour Observerd Temp Pressure Visibility Humidity Dew Point Wind
22:00 Fair 24°F (-4.4°C) 103.32 kPa 10 miles 71% 16°F (-8.9°C) 1 mph NE 45°2 mph
21:00 Fair 27°F (-2.8°C) 103.18 kPa 10 miles 66% 17.2°F (-8.2°C) 2 mph NE 45°3 mph
20:00 Fair 28°F (-2.2°C) 103.35 kPa 10 miles 65% 17.8°F (-7.9°C) 1 mph NE 45°2 mph
19:00 Fair 28°F (-2.2°C) 103.32 kPa 10 miles 62% 16.7°F (-8.5°C) 1 mph NW 315°3 mph
18:00 Fair 30°F (-1.1°C) 103.28 kPa 10 miles 59% 17.4°F (-8.1°C) 1 mph NE 35°4 mph
17:00 Fair 32°F (0°C) 103.28 kPa 10 miles 55% 17.7°F (-8°C) 2 mph NE 47°7 mph
16:00 Fair 34°F (1.1°C) 103.25 kPa 10 miles 55% 19.5°F (-6.9°C) 2 mph NE 52°5 mph
15:00 Fair 35°F (1.7°C) 103.22 kPa 10 miles 53% 19.6°F (-6.9°C) 2 mph NE 46°6 mph
14:00 Fair 34°F (1.1°C) 103.15 kPa 10 miles 53% 18.7°F (-7.4°C) 3 mph NNE 15°7 mph
13:00 Fair 33°F (0.6°C) 103.18 kPa 10 miles 56% 19°F (-7.2°C) 2 mph NE 50°5 mph
12:00 Fair 31°F (-0.6°C) 103.25 kPa 10 miles 58% 18°F (-7.8°C) 2 mph N 349°7 mph
11:00 Fair 28°F (-2.2°C) 103.35 kPa 10 miles 62% 16.7°F (-8.5°C) 2 mph NE 38°9 mph
10:00 Fair 25°F (-3.9°C) 103.39 kPa 10 miles 66% 15.3°F (-9.3°C) 2 mph N 1°6 mph
09:00 Fair 23°F (-5°C) 103.45 kPa 10 miles 69% 14.4°F (-9.8°C) 2 mph NNE 29°4 mph
08:00 Fair 20°F (-6.7°C) 103.49 kPa 10 miles 72% 12.5°F (-10.9°C) 1 mph NE 37°2 mph
07:00 Fair 19°F (-7.2°C) 103.45 kPa 10 miles 73% 11.8°F (-11.2°C) 1 mph NE 36°3 mph
06:00 Fair 20°F (-6.7°C) 103.42 kPa 10 miles 69% 11.5°F (-11.4°C) 1 mph NE 47°2 mph
05:00 Fair 21°F (-6.1°C) 103.39 kPa 10 miles 67% 11.8°F (-11.2°C) 1 mph NE 50°4 mph
04:00 Fair 22°F (-5.6°C) 103.32 kPa 10 miles 66% 12.4°F (-10.9°C) 2 mph NE 55°5 mph
03:00 Fair 23°F (-5°C) 103.18 kPa 10 miles 63% 12.3°F (-10.9°C) 1 mph NE 42°4 mph
02:00 Fair 24°F (-4.4°C) 103.18 kPa 10 miles 65% 14°F (-10°C) 1 mph NNE 25°4 mph
01:00 Fair 25°F (-3.9°C) 103.12 kPa 10 miles 64% 14.6°F (-9.7°C) 2 mph NE 37°6 mph
00:00 Fair 26°F (-3.3°C) 103.08 kPa 10 miles 62% 14.8°F (-9.6°C) 2 mph NE 35°8 mph
23:00 Fair 26°F (-3.3°C) 103.08 kPa 10 miles 62% 14.8°F (-9.6°C) 2 mph NE 53°5 mph